"Pseudo-MPEC" for P119N3i

Created 2020 Nov 22 16:07:28 UT using Find_Orb

Click here for an explanation of pseudo-MPECs

 
 Astrometry: 
     P119N3i  C2020 11 17wy++J]XVehAstrometryjOPmredacted;\,Ct.bRe-(rWE[.x@9IF51
     P119N3i  C2020 11 17@Q[Qpclick#AESh[_1U_s=7s\x!//!Dryd1_]62`119ylRdGk]]WF51
     P119N3i  C2020 11 17U52dEgb=gL(CeE'U1AfhereC5for?5g)7Yexplanationg/pxd+0F51

Station data:
(F51) Pan-STARRS 1, Haleakala  (N20.707235 W156.255910)  US/Hawaii.
   Observers N. Primak, A. Schultz, S. Watters, J. Thiel, T. Goggia. Measurer
   PS1 Science Consortium. 1.8-m Ritchey-Chrétien + CCD.

Orbital elements:  P119N3i
   Perihelion 2021 Mar 30.654020 +/- 96 TT = 15:41:47 (JD 2459304.154020)
Epoch 2020 Nov 17.0 TT = JDT 2459170.5   Earth MOID: 0.0100   AutoNEOCP
M 218.76964587 +/- 110              (J2000 ecliptic)
n   1.05668616 +/- 0.579            Peri.  323.71007 +/- 56
a   0.95463796 +/- 0.349            Node   239.24214 +/- 29
e   0.1037220 +/- 0.234             Incl.    1.15083 +/- 60
P   0.93/340.68d           H 27.7   G  0.15   U 12.4  SR
q 0.85562097 +/- 0.468    Q 1.05365494 +/- 13.5
From 3 observations 2020 Nov. 17 (35.8 min); mean residual 0".03
Residuals in arcseconds: 
201117 F51  .02+  .02-    201117 F51  .05-  .03+    201117 F51  .02+  .02-    

Ephemerides (geocentric):
Date (UTC) HH   RA              Dec         delta   r     elong  mag " sig PA
---- -- -- --  -------------   -----------  ------ ------ -----  --- ---- ---
2020 11 22 16  03 07 57.862   +17 13 38.98  .04275 1.0295 168.8 21.6  32d 167
2020 11 22 17  03 07 41.522   +17 11 24.19  .04272 1.0295 168.7 21.6  32d 167
2020 11 22 18  03 07 25.177   +17 09 09.20  .04270 1.0294 168.6 21.6  32d 166
2020 11 22 19  03 07 08.826   +17 06 54.01  .04268 1.0294 168.5 21.6  32d 166
2020 11 22 20  03 06 52.469   +17 04 38.62  .04266 1.0293 168.3 21.6  32d 166
2020 11 22 21  03 06 36.108   +17 02 23.03  .04264 1.0293 168.2 21.6  32d 166
2020 11 22 22  03 06 19.741   +17 00 07.25  .04261 1.0292 168.1 21.6  32d 166
2020 11 22 23  03 06 03.369   +16 57 51.27  .04259 1.0292 168.0 21.6  33d 166
2020 11 23 00  03 05 46.991   +16 55 35.09  .04257 1.0291 167.9 21.6  33d 166
2020 11 23 01  03 05 30.609   +16 53 18.72  .04255 1.0291 167.8 21.6  33d 166
2020 11 23 02  03 05 14.222   +16 51 02.16  .04253 1.0290 167.6 21.6  33d 166
2020 11 23 03  03 04 57.831   +16 48 45.41  .04251 1.0290 167.5 21.6  33d 166
2020 11 23 04  03 04 41.434   +16 46 28.46  .04249 1.0289 167.4 21.6  33d 166
2020 11 23 05  03 04 25.033   +16 44 11.32  .04246 1.0289 167.3 21.6  33d 166
2020 11 23 06  03 04 08.628   +16 41 53.99  .04244 1.0289 167.2 21.6  33d 166
2020 11 23 07  03 03 52.218   +16 39 36.47  .04242 1.0288 167.1 21.6  33d 166
2020 11 23 08  03 03 35.804   +16 37 18.76  .04240 1.0288 167.0 21.6  33d 166
2020 11 23 09  03 03 19.386   +16 35 00.87  .04238 1.0287 166.8 21.6  33d 166
2020 11 23 10  03 03 02.964   +16 32 42.79  .04236 1.0287 166.7 21.6  33d 166
2020 11 23 11  03 02 46.538   +16 30 24.52  .04234 1.0286 166.6 21.6  33d 166
2020 11 23 12  03 02 30.108   +16 28 06.06  .04232 1.0286 166.5 21.6  33d 166
2020 11 23 13  03 02 13.674   +16 25 47.43  .04230 1.0285 166.4 21.6  33d 166
2020 11 23 14  03 01 57.237   +16 23 28.61  .04228 1.0285 166.3 21.6  34d 166
2020 11 23 15  03 01 40.796   +16 21 09.60  .04226 1.0284 166.1 21.6  34d 166
2020 11 23 16  03 01 24.352   +16 18 50.42  .04224 1.0284 166.0 21.6  34d 166
2020 11 23 17  03 01 07.904   +16 16 31.05  .04222 1.0283 165.9 21.6  34d 166
2020 11 23 18  03 00 51.453   +16 14 11.50  .04220 1.0283 165.8 21.6  34d 166
2020 11 23 19  03 00 34.999   +16 11 51.78  .04218 1.0282 165.7 21.6  34d 166
2020 11 23 20  03 00 18.542   +16 09 31.88  .04217 1.0282 165.5 21.6  34d 166
2020 11 23 21  03 00 02.082   +16 07 11.80  .04215 1.0281 165.4 21.6  34d 166
2020 11 23 22  02 59 45.619   +16 04 51.54  .04213 1.0281 165.3 21.7  34d 166
2020 11 23 23  02 59 29.153   +16 02 31.11  .04211 1.0281 165.2 21.7  34d 166
2020 11 24 00  02 59 12.685   +16 00 10.50  .04209 1.0280 165.1 21.7  34d 166
2020 11 24 01  02 58 56.214   +15 57 49.72  .04207 1.0280 165.0 21.7  34d 166
2020 11 24 02  02 58 39.740   +15 55 28.77  .04205 1.0279 164.8 21.7  34d 166
2020 11 24 03  02 58 23.265   +15 53 07.64  .04203 1.0279 164.7 21.7  34d 166
2020 11 24 04  02 58 06.787   +15 50 46.35  .04202 1.0278 164.6 21.7  34d 166
2020 11 24 05  02 57 50.306   +15 48 24.88  .04200 1.0278 164.5 21.7  34d 166
2020 11 24 06  02 57 33.824   +15 46 03.25  .04198 1.0277 164.4 21.7  34d 166
2020 11 24 07  02 57 17.340   +15 43 41.45  .04196 1.0277 164.3 21.7  35d 166
2020 11 24 08  02 57 00.854   +15 41 19.48  .04194 1.0276 164.1 21.7  35d 166
2020 11 24 09  02 56 44.366   +15 38 57.35  .04193 1.0276 164.0 21.7  35d 166
2020 11 24 10  02 56 27.876   +15 36 35.05  .04191 1.0275 163.9 21.7  35d 166
2020 11 24 11  02 56 11.385   +15 34 12.58  .04189 1.0275 163.8 21.7  35d 166
2020 11 24 12  02 55 54.892   +15 31 49.95  .04187 1.0274 163.7 21.7  35d 165
2020 11 24 13  02 55 38.398   +15 29 27.17  .04186 1.0274 163.5 21.7  35d 165
2020 11 24 14  02 55 21.903   +15 27 04.21  .04184 1.0273 163.4 21.7  35d 165
2020 11 24 15  02 55 05.406   +15 24 41.10  .04182 1.0273 163.3 21.7  35d 165